This demonstration page uses our WeatherBlox Daily Observations layout. Learn more.

Left ArrowRight Arrow

47.50024, -111.30081

Hourly Observations for January 24, 2018

Temp ( °F °C ) Dew Point ( °F °C ) Humidity (%) Winds ( mph kmh ) Pressure ( in mb ) Visibility ( mi km ) Precip ( " mm )
12:53 am 00:53 Clear 34 1.1 15 -9.4 46 46 SSW 20 31 29.97 1015 10 16 0.00 0.00
1:53 am 01:53 Partly Cloudy 33 0.6 16 -8.9 49 49 S 10 17 29.97 1015 10 16 0.00 0.00
2:53 am 02:53 Clear 35 1.7 17 -8.3 48 48 SSW 17 28 29.95 1014 10 16 0.00 0.00
3:53 am 03:53 Clear 35 1.7 18 -7.8 50 50 SSW 21 33 29.94 1014 10 16 0.00 0.00
4:53 am 04:53 Clear 35 1.7 18 -7.8 50 50 SSW 18 30 29.94 1014 10 16 0.00 0.00
5:53 am 05:53 Clear 37 2.8 18 -7.8 46 46 SSW 21 33 29.93 1014 10 16 0.00 0.00
6:53 am 06:53 Clear 36 2.2 19 -7.2 50 50 S 13 20 29.93 1014 10 16 0.00 0.00
7:53 am 07:53 Clear 35 1.7 19 -7.2 52 52 S 13 20 29.93 1014 10 16 0.00 0.00
8:53 am 08:53 Sunny 37 2.8 21 -6.1 52 52 S 13 20 29.91 1013 10 16 0.00 0.00
9:53 am 09:53 Sunny 43 6.1 23 -5 45 45 SW 26 43 29.90 1013 10 16 0.00 0.00
10:53 am 10:53 Sunny 47 8.3 21 -6.1 36 36 SW 32 52 29.88 1012 10 16 0.00 0.00
11:53 am 11:53 Sunny 50 10 21 -6.1 32 32 SW 28 44 29.86 1011 10 16 0.00 0.00
12:53 pm 12:53 Sunny 50 10 20 -6.7 30 30 SW 24 39 29.84 1011 10 16 0.00 0.00
1:53 pm 13:53 Sunny 50 10 20 -6.7 30 30 SW 26 43 29.82 1010 10 16 0.00 0.00
2:53 pm 14:53 Sunny 50 10 20 -6.7 30 30 SW 20 31 29.83 1010 10 16 0.00 0.00
3:53 pm 15:53 Sunny 48 8.9 19 -7.2 32 32 SSW 17 28 29.82 1010 10 16 0.00 0.00
4:53 pm 16:53 Sunny 44 6.7 19 -7.2 37 37 S 18 30 29.82 1010 10 16 0.00 0.00
5:53 pm 17:53 Clear 42 5.6 20 -6.7 41 41 S 17 28 29.80 1009 10 16 0.00 0.00
6:53 pm 18:53 Clear 42 5.6 20 -6.7 41 41 S 14 22 29.79 1009 10 16 0.00 0.00
7:53 pm 19:53 Clear 41 5 19 -7.2 41 41 S 15 24 29.77 1008 10 16 0.00 0.00
8:53 pm 20:53 Clear 43 6.1 18 -7.8 37 37 SSW 17 28 29.73 1007 10 16 0.00 0.00
9:53 pm 21:53 Clear 42 5.6 19 -7.2 40 40 S 15 24 29.71 1006 10 16 0.00 0.00
10:53 pm 22:53 Clear 40 4.4 19 -7.2 43 43 SSW 14 22 29.69 1005 10 16 0.00 0.00
11:53 pm 23:53 Clear 40 4.4 18 -7.8 41 41 SSW 16 26 29.68 1005 10 16 0.00 0.00

Powered by AerisWeather